TimeEST,TemperatureF,Dew PointF,Humidity,Sea Level PressureIn,VisibilityMPH,Wind Direction,Wind SpeedMPH,Gust SpeedMPH,PrecipitationIn,Events,Conditions,WindDirDegrees,DateUTC
12:53 AM,41.0,36.0,82,30.22,10.0,Calm,Calm,-,N/A,,Clear,0,2012-11-23 05:53:00
1:53 AM,39.0,35.1,86,30.22,10.0,Calm,Calm,-,N/A,,Clear,0,2012-11-23 06:53:00
2:53 AM,39.0,35.1,86,30.21,10.0,Calm,Calm,-,N/A,,Clear,0,2012-11-23 07:53:00
3:53 AM,37.9,34.0,86,30.22,10.0,Calm,Calm,-,N/A,,Clear,0,2012-11-23 08:53:00
4:53 AM,37.0,34.0,89,30.22,10.0,Calm,Calm,-,N/A,,Clear,0,2012-11-23 09:53:00
5:53 AM,37.0,33.1,86,30.22,10.0,Calm,Calm,-,N/A,,Clear,0,2012-11-23 10:53:00
6:53 AM,36.0,33.1,89,30.23,10.0,Calm,Calm,-,N/A,,Clear,0,2012-11-23 11:53:00
7:53 AM,37.0,34.0,89,30.24,10.0,Calm,Calm,-,N/A,,Clear,0,2012-11-23 12:53:00
8:53 AM,46.0,39.0,76,30.25,10.0,Calm,Calm,-,N/A,,Clear,0,2012-11-23 13:53:00
9:53 AM,57.0,42.1,57,30.25,9.0,Calm,Calm,-,N/A,,Clear,0,2012-11-23 14:53:00
10:53 AM,66.0,45.0,47,30.24,10.0,NW,6.9,-,N/A,,Clear,320,2012-11-23 15:53:00
11:29 AM,69.8,44.6,40,30.21,10.0,WNW,8.1,16.1,N/A,,Clear,300,2012-11-23 16:29:00
11:53 AM,72.0,42.1,34,30.20,10.0,WNW,11.5,19.6,N/A,,Clear,300,2012-11-23 16:53:00
12:53 PM,73.0,42.1,33,30.16,10.0,WNW,11.5,19.6,N/A,,Clear,300,2012-11-23 17:53:00
1:53 PM,73.9,42.1,32,30.13,10.0,Variable,6.9,-,N/A,,Clear,0,2012-11-23 18:53:00
2:53 PM,73.0,42.1,33,30.11,10.0,West,9.2,-,N/A,,Clear,260,2012-11-23 19:53:00
3:53 PM,73.9,42.1,32,30.09,10.0,Variable,6.9,-,N/A,,Clear,0,2012-11-23 20:53:00
4:53 PM,72.0,41.0,33,30.09,10.0,West,8.1,-,N/A,,Clear,260,2012-11-23 21:53:00
5:53 PM,66.0,41.0,40,30.09,10.0,West,4.6,-,N/A,,Clear,270,2012-11-23 22:53:00
6:53 PM,57.0,42.1,57,30.10,10.0,WSW,3.5,-,N/A,,Clear,240,2012-11-23 23:53:00
7:53 PM,55.0,43.0,64,30.10,10.0,WSW,4.6,-,N/A,,Clear,250,2012-11-24 00:53:00
8:53 PM,55.9,43.0,62,30.10,10.0,WSW,4.6,-,N/A,,Clear,250,2012-11-24 01:53:00
9:53 PM,55.0,44.1,67,30.09,10.0,WSW,5.8,-,N/A,,Mostly Cloudy,250,2012-11-24 02:53:00
10:53 PM,59.0,45.0,60,30.09,10.0,West,4.6,-,N/A,,Overcast,260,2012-11-24 03:53:00
11:53 PM,60.1,46.0,60,30.09,10.0,West,4.6,-,N/A,,Overcast,280,2012-11-24 04:53:00